LizzieSat-3

operational
NORAD ID: 63233 Int'l Des: 2025-052 Owner: SIDUS Country: US
LEOCIRCULARRETROGRADESSO

关于 LizzieSat-3

正在加载描述...

实时位置

正在加载3D地球...

即将过境

高度历史

Altitude vs Time

uPlot chart will show altitude changes over time

两行轨道根数

1 63233U 25052Z 25340.62043094 .00009729 00000-0 46380-3 0 9994
2 63233 97.4123 230.8796 0008013 108.1235 252.0873 15.19278561 40547
Epoch: Dec 6, 2025 • Age: 15 hours

当前状态

高度 513.7 km
速度 7.61 km/s
星下点 -13.84°S, 116.09°W
发射日期 Mar 15, 2025
运行时间 0.7 years
类型 other

技术详情

分类 Payload
质量 100.00 kg
干质量 100.00 kg
总质量 100.00 kg
长度 0.40 m
直径 0.80 m
跨度 1.40 m
形状 Oct cyl+8 pan
制造商 SIDUS
平台类型 LizzieSat
阶段状态 In Orbit
所有者/国家 SIDUS/US

大型星座

Loading constellations...